SCP
-0 0 0 0 -0 -0 0 0 -0 -0 0 0 0 0 0 -0 0 0 0 0 0 0 0 0 0 0 0 0 0 0 0 0 0 0 0 0 0 0 0 0 0 0 0
-0 -0 -0 -0 -0 -0 0 0 0 0 0 0 0 0 0 0 0 0 0 0 0 0 0 0 0 0 0 0 0 0 0 0 0 0 0 0 0 0 0 0 0 0 0
0 0 0 0 0 0 0 0 0 -0 0 0 0 0 0 0 0 0 0 0 0 0 0 0 0 0 0 0 0 0 0 0 0 0 0 0 0 0 0 0 0 0 0
0 0 0 0 0 0 0 0 0 0 -0 -0 -0 0 0 0 0 0 0 0 0 0 0 0 0 0 0 0 0 0 0 0 0 0 0 0 0 0 0 0 0 0 0
0 0 0 0 0 0 0 0 0 0 0 0 0 0 0 0 0 0 0 0 0 0 0 0 0 0 0 0 0 0 0 0 0 0 0 0 0 0 0 1 0 0 0
0 0 0 0 0 0 0 0 0 0 0 0 0 0 0 0 0 0 0 0 0 0 0 0 0 0 -0 0 0 0 0 0 0 0 0 0 0 0 0 0 1 0 0
0 0 0 0 0 0 0 0 0 0 0 0 0 0 0 0 0 0 0 0 0 0 0 0 0 0 0 0 -0 -0 -0 0 0 0 0 0 0 0 0 0 0 0 0
0 0 0 0 0 0 0 0 0 0 0 0 0 0 0 0 0 0 0 0 0 0 0 0 0 0 0 0 0 0 0 0 0 0 0 0 0 0 0 0 0 0 0
0 0 0 0 0 0 0 0 0 0 0 0 0 0 0 0 0 0 0 0 0 0 0 0 0 0 0 0 0 0 0 0 0 0 0 0 0 0 0 0 0 0 0
0 0 0 0 0 0 0 0 0 0 0 0 0 0 0 0 0 0 0 0 0 0 0 0 0 0 0 0 0 0 0 0 0 0 0 0 0 0 0 0 0 0 0
0 0 0 0 0 0 0 0 0 0 0 0 0 0 0 0 0 0 0 0 0 0 0 0 0 0 0 0 0 0 0 0 0 0 0 0 0 0 0 0 0 0 0
0 0 0 0 0 0 0 0 0 0 0 0 0 0 0 0 0 0 0 0 0 0 0 0 0 0 0 0 0 0 0 0 0 0 0 0 0 0 0 0 0 0 0
0 0 0 0 0 0 0 0 0 0 0 0 0 0 0 0 0 0 0 0 0 0 0 0 0 0 0 0 0 0 0 0 0 0 0 0 0 0 0 0 0 0 0
0 0 0 0 0 0 0 0 0 0 0 0 0 0 0 0 0 0 0 0 0 0 0 0 0 0 0 0 0 0 0 0 0 0 0 0 0 0 0 0 0 0 0
0 0 0 0 0 0 0 0 0 0 0 0 0 0 0 0 0 0 0 0 0 0 0 0 0 0 0 0 0 0 0 0 0 0 0 0 0 0 0 0 0 0 0
0 0 0 0 0 0 0 0 0 0 0 0 0 0 0 0 0 0 0 0 0 0 0 0 0 0 0 0 0 0 0 0 0 0 0 0 0 0 0 0 0 0 0
0 0 0 0 0 0 0 0 0 0 0 0 -0 -0 0 -0 -0 -0 0 0 0 0 0 0 0 0 0 0 0 0 0 0 0 0 0 0 0 0 0 0 0 0 0
0 0 0 0 0 0 0 0 0 0 0 0 0 0 0 0 0 0 0 0 0 0 0 0 0 0 0 0 0 0 0 0 0 0 0 0 0 0 0 0 0 0 0
0 0 0 0 0 0 0 0 0 0 0 0 -0 -0 -0 0 0 0 0 0 0 0 0 0 0 0 0 0 0 0 0 0 0 0 0 0 0 0 0 0 0 0 0
0 0 0 0 0 0 0 0 0 0 0 0 0 0 0 0 0 0 0 0 0 0 0 0 0 0 0 0 0 0 0 0 0 0 0 0 0 0 0 0 0 0 0
0 0 0 0 0 0 0 0 0 0 0 0 0 0 0 0 0 0 0 0 0 0 0 0 0 0 0 0 0 0 0 0 0 0 0 0 0 0 0 0 0 0 0
0 0 0 0 0 0 0 0 0 0 0 0 0 0 0 0 0 0 0 0 0 0 0 0 0 0 0 0 0 0 0 0 0 0 0 0 0 0 0 0 0 0 0
0 0 0 0 0 0 0 0 0 0 0 0 0 0 0 0 0 0 0 0 0 0 0 0 0 0 0 0 0 0 0 0 0 0 0 0 0 0 0 0 0 0 0
0 0 0 0 0 0 0 0 0 0 0 0 0 0 0 0 0 0 0 0 0 0 0 0 0 0 0 0 0 0 0 0 0 0 0 0 0 0 0 0 0 0 0
0 0 0 0 0 0 0 0 0 0 0 0 0 0 0 0 0 0 0 0 0 0 0 0 0 0 0 0 0 0 0 0 0 0 0 0 0 0 0 0 0 0 0
0 0 0 0 0 0 0 0 0 0 0 0 0 0 0 0 0 0 0 0 0 0 0 0 0 0 0 0 0 0 0 0 0 0 0 0 0 0 0 0 0 0 0
Wind_Speed_500mb
49 50 51 47 42 40 44 44 46 53 48 45 47 46 43 38 35 35 40 39 34 33 31 30 30 29 33 37 40 43 50 49 48 42 35 29 26 20 17 20 22 22 28
32 31 27 26 31 34 35 36 41 47 47 43 42 47 45 37 40 41 36 38 42 38 31 28 27 31 33 35 37 45 48 52 52 50 45 39 33 30 35 35 35 37 41
38 33 32 33 36 36 43 48 40 31 33 36 40 40 39 40 38 37 40 36 30 34 34 21 24 44 42 36 34 39 45 51 49 50 52 45 42 37 36 38 40 44 45
22 27 31 32 35 31 27 23 19 24 31 34 38 42 41 41 39 38 40 33 33 32 37 40 50 23 53 39 43 42 38 43 45 47 47 46 45 43 49 48 46 44 44
18 16 16 16 17 21 24 27 28 30 36 43 38 29 31 32 37 37 32 28 30 26 33 45 31 31 38 43 54 36 30 32 39 42 46 50 49 46 48 48 52 55 55
17 9 9 9 15 17 20 24 27 28 24 26 31 25 25 26 28 31 35 31 28 27 27 25 32 32 37 45 40 28 26 32 33 36 40 45 46 47 46 46 47 52 56
17 14 11 10 13 12 15 18 18 21 26 31 27 24 23 22 24 21 26 24 27 24 19 13 22 31 36 30 31 39 41 38 44 40 45 44 45 47 44 51 54 50 52
14 8 10 9 12 14 16 18 18 20 20 21 21 20 20 19 18 17 20 22 22 19 16 16 17 18 16 19 26 32 33 36 39 47 54 56 63 57 52 59 53 57 62
3 6 7 7 10 12 16 16 15 15 14 15 15 15 17 18 19 19 19 19 21 22 21 21 20 20 19 21 25 28 29 27 26 33 40 45 42 40 45 50 56 50 55
8 9 6 6 6 4 2 4 8 10 9 8 6 6 9 10 11 11 10 9 11 16 21 22 24 24 25 26 26 22 20 20 22 22 25 26 28 29 33 41 43 50 55
8 6 4 7 7 9 12 15 15 12 9 7 7 8 10 13 13 11 11 10 9 10 11 12 14 17 22 28 31 32 32 32 33 34 35 35 34 36 37 40 44 50 59
8 8 11 11 13 16 13 14 14 14 9 12 16 19 22 23 24 23 21 18 15 10 10 14 17 18 20 21 26 29 33 34 34 38 37 40 41 42 44 46 52 58 60
10 12 14 13 13 12 10 13 14 15 16 20 21 22 23 23 21 21 22 21 20 18 19 19 18 16 15 14 14 13 14 17 21 26 32 36 39 42 44 48 51 51 51
15 18 17 15 16 16 13 11 13 15 16 17 18 19 19 19 20 19 17 17 17 13 13 14 13 10 9 10 11 14 17 18 19 20 22 26 30 33 34 36 40 41 47
18 19 19 17 16 16 19 16 16 14 12 13 15 21 20 21 23 25 23 19 15 14 15 15 15 14 15 16 15 13 14 16 19 22 26 30 31 32 34 35 37 39 42
21 18 14 14 18 22 23 18 19 14 14 13 20 23 24 28 30 30 30 30 26 22 21 19 20 23 24 25 25 23 24 24 24 27 31 35 40 43 45 44 43 42 43
17 15 13 15 21 30 25 21 25 25 15 16 24 28 29 30 32 33 34 32 28 24 25 26 27 28 29 29 29 31 32 32 32 32 35 38 40 42 46 48 48 46 46
22 16 18 30 33 34 29 23 17 13 10 15 19 23 27 30 32 34 34 33 33 32 32 32 33 31 29 29 31 33 35 37 38 40 41 42 44 45 44 42 44 47 48
23 26 33 32 29 29 23 17 14 14 7 11 15 18 19 20 24 29 31 32 34 34 32 32 34 36 35 35 34 37 40 42 43 45 46 47 48 49 46 44 44 45 46
29 31 34 29 28 26 17 17 22 12 6 6 8 10 11 14 15 19 21 23 23 27 27 27 28 31 37 38 37 38 41 45 48 48 50 52 52 53 54 49 43 46 47
34 37 32 30 25 20 18 20 16 13 12 11 10 10 14 15 16 19 21 23 23 22 22 23 26 32 37 37 38 40 44 51 52 52 53 55 55 56 56 50 47 45 48
33 35 35 33 28 24 21 19 15 11 10 13 15 12 15 20 26 31 35 32 27 28 30 31 32 36 39 36 37 40 44 51 56 56 57 58 60 60 59 53 48 45 46
39 41 38 34 27 22 17 13 8 3 7 15 21 21 19 22 26 28 28 30 30 30 31 37 41 42 37 37 36 37 43 49 57 58 61 62 63 61 54 51 50 50 49
44 42 37 33 26 23 17 9 5 2 6 16 22 23 21 22 23 23 26 30 35 38 41 44 43 40 39 36 37 38 43 51 56 55 58 63 64 60 54 48 48 48 50
49 43 37 32 27 21 15 7 3 6 6 11 21 21 23 25 28 29 32 37 44 51 46 41 40 38 37 35 35 41 43 48 51 53 57 62 62 57 52 46 48 45 44
45 41 35 33 28 20 12 6 4 9 10 12 19 21 23 28 34 40 44 49 54 53 45 38 33 31 31 30 34 39 48 48 47 52 58 61 58 53 50 46 47 45 41
Wind_Direction_500mb
230 235 239 242 249 258 262 256 268 271 274 281 288 289 283 278 279 282 286 286 283 276 269 278 282 284 278 268 263 258 255 245 253 258 263 260 263 261 260 268 246 246 260
221 226 237 237 236 251 267 284 284 276 279 279 282 281 272 277 278 275 282 279 281 268 272 273 293 291 287 279 265 255 254 251 249 257 259 264 260 260 262 261 260 262 267
215 224 230 240 246 257 272 281 276 272 272 278 280 280 276 275 276 278 280 287 290 269 256 253 297 285 274 271 273 278 259 252 252 258 262 263 262 264 266 261 262 262 271
212 232 249 258 262 264 266 268 270 271 270 269 274 276 274 266 264 278 286 277 272 266 246 241 273 269 255 257 289 264 270 255 249 258 262 263 264 263 260 263 265 269 272
179 191 201 215 240 257 266 269 266 265 268 272 276 280 285 276 269 275 278 284 280 274 259 249 271 267 266 264 289 252 255 261 256 258 263 266 264 266 264 267 266 268 268
143 164 192 230 255 263 261 264 265 264 267 276 282 276 273 263 264 268 275 285 287 285 284 269 254 249 251 269 267 241 248 252 253 258 264 267 270 268 269 269 274 272 271
154 175 183 205 244 252 254 262 264 274 277 282 294 299 299 294 290 279 278 279 284 279 284 292 277 268 253 249 247 252 269 265 259 258 261 265 270 269 271 270 275 282 270
154 181 204 202 227 238 248 255 263 272 278 282 285 289 293 296 297 295 287 284 284 284 271 266 276 283 281 269 267 271 276 270 260 252 257 266 273 266 265 271 273 270 268
165 217 221 231 240 250 251 255 265 278 285 285 285 287 293 299 301 298 288 284 281 280 279 278 282 287 285 281 283 284 283 285 280 275 264 266 274 274 269 269 270 283 280
192 202 215 219 215 215 184 91 83 71 62 57 36 8 3 2 3 0 358 344 311 286 277 273 265 268 278 284 292 293 289 292 293 289 284 280 277 274 270 270 275 276 279
201 208 179 154 110 98 102 97 80 56 25 352 336 337 342 351 353 349 340 326 308 294 293 296 281 268 265 271 281 286 288 284 282 282 279 275 276 277 275 273 274 275 275
192 172 154 137 108 106 99 84 62 51 45 65 65 66 61 52 41 37 38 38 29 7 334 312 300 293 290 285 281 283 286 292 292 284 282 284 283 280 277 274 276 278 277
180 166 150 133 117 119 108 83 74 85 82 76 71 69 63 53 42 38 36 36 34 43 47 39 29 17 8 356 353 341 323 312 305 300 296 294 292 291 288 284 279 278 279
175 158 150 149 144 146 142 109 95 98 90 78 63 46 31 13 13 28 35 33 36 33 28 24 22 27 23 13 0 359 356 351 343 332 322 316 314 314 314 311 300 291 291
160 154 155 157 162 159 162 137 126 108 82 53 47 16 1 5 19 20 21 23 20 9 355 339 324 324 329 328 331 326 319 316 318 322 323 321 318 316 316 320 317 312 307
162 162 169 180 183 172 166 149 143 124 100 69 30 28 36 40 36 31 27 23 18 9 349 350 1 1 1 1 354 347 344 344 338 329 322 316 313 312 311 309 309 310 308
165 160 158 157 159 161 150 147 145 133 113 55 43 50 51 45 39 35 32 25 20 13 15 20 19 19 19 19 18 13 11 6 356 348 341 334 328 320 315 313 312 309 306
160 153 145 140 139 143 144 144 143 126 99 52 49 52 50 45 36 29 26 22 22 20 19 18 18 19 17 15 11 7 2 357 354 351 348 345 339 329 327 326 323 326 321
163 155 148 147 149 154 151 151 160 150 94 39 43 39 35 27 22 18 14 14 18 19 17 14 9 4 359 355 355 356 355 351 350 349 348 346 342 337 329 322 323 327 333
159 157 155 154 157 163 157 155 152 149 93 48 17 10 3 2 359 356 354 351 354 0 2 1 358 356 354 349 343 343 344 343 342 341 343 342 340 337 333 324 317 320 325
155 157 162 155 150 149 149 150 140 112 78 42 3 321 330 329 326 329 331 328 310 313 321 329 339 344 346 337 335 335 340 342 340 339 339 339 339 336 334 327 322 321 323
159 161 157 156 153 141 133 130 119 95 57 28 10 346 329 323 318 319 321 323 316 300 296 308 320 328 334 331 327 329 334 341 340 336 336 338 337 336 335 335 331 327 322
160 158 155 156 152 148 139 135 127 76 29 14 12 6 347 331 328 327 327 325 323 318 303 303 308 314 319 321 314 322 325 334 337 334 333 334 334 333 330 332 326 326 327
165 163 162 158 150 145 147 121 108 309 360 8 2 3 358 351 344 338 337 331 324 317 308 300 297 297 304 308 306 314 319 323 329 329 329 330 330 328 326 323 322 320 324
171 169 166 165 160 149 160 168 220 272 328 351 2 11 14 13 6 353 340 332 328 325 319 307 295 298 303 300 300 306 313 321 324 325 327 328 327 325 323 317 318 316 320
178 177 178 182 186 188 198 224 282 308 309 314 346 351 357 356 352 349 343 336 330 330 326 320 313 303 300 299 306 311 316 319 322 325 326 326 325 324 322 317 315 315 316
Wind_Speed_850mb
49 50 51 47 42 40 44 44 46 53 48 45 47 46 43 38 35 35 40 39 34 33 31 30 30 29 33 37 40 43 50 49 48 42 35 29 26 20 17 20 22 22 28
32 31 27 26 31 34 35 36 41 47 47 43 42 47 45 37 40 41 36 38 42 38 31 28 27 31 33 35 37 45 48 52 52 50 45 39 33 30 35 35 35 37 41
38 33 32 33 36 36 43 48 40 31 33 36 40 40 39 40 38 37 40 36 30 34 34 21 24 44 42 36 34 39 45 51 49 50 52 45 42 37 36 38 40 44 45
22 27 31 32 35 31 27 23 19 24 31 34 38 42 41 41 39 38 40 33 33 32 37 40 50 23 53 39 43 42 38 43 45 47 47 46 45 43 49 48 46 44 44
18 16 16 16 17 21 24 27 28 30 36 43 38 29 31 32 37 37 32 28 30 26 33 45 31 31 38 43 54 36 30 32 39 42 46 50 49 46 48 48 52 55 55
17 9 9 9 15 17 20 24 27 28 24 26 31 25 25 26 28 31 35 31 28 27 27 25 32 32 37 45 40 28 26 32 33 36 40 45 46 47 46 46 47 52 56
17 14 11 10 13 12 15 18 18 21 26 31 27 24 23 22 24 21 26 24 27 24 19 13 22 31 36 30 31 39 41 38 44 40 45 44 45 47 44 51 54 50 52
14 8 10 9 12 14 16 18 18 20 20 21 21 20 20 19 18 17 20 22 22 19 16 16 17 18 16 19 26 32 33 36 39 47 54 56 63 57 52 59 53 57 62
3 6 7 7 10 12 16 16 15 15 14 15 15 15 17 18 19 19 19 19 21 22 21 21 20 20 19 21 25 28 29 27 26 33 40 45 42 40 45 50 56 50 55
8 9 6 6 6 4 2 4 8 10 9 8 6 6 9 10 11 11 10 9 11 16 21 22 24 24 25 26 26 22 20 20 22 22 25 26 28 29 33 41 43 50 55
8 6 4 7 7 9 12 15 15 12 9 7 7 8 10 13 13 11 11 10 9 10 11 12 14 17 22 28 31 32 32 32 33 34 35 35 34 36 37 40 44 50 59
8 8 11 11 13 16 13 14 14 14 9 12 16 19 22 23 24 23 21 18 15 10 10 14 17 18 20 21 26 29 33 34 34 38 37 40 41 42 44 46 52 58 60
10 12 14 13 13 12 10 13 14 15 16 20 21 22 23 23 21 21 22 21 20 18 19 19 18 16 15 14 14 13 14 17 21 26 32 36 39 42 44 48 51 51 51
15 18 17 15 16 16 13 11 13 15 16 17 18 19 19 19 20 19 17 17 17 13 13 14 13 10 9 10 11 14 17 18 19 20 22 26 30 33 34 36 40 41 47
18 19 19 17 16 16 19 16 16 14 12 13 15 21 20 21 23 25 23 19 15 14 15 15 15 14 15 16 15 13 14 16 19 22 26 30 31 32 34 35 37 39 42
21 18 14 14 18 22 23 18 19 14 14 13 20 23 24 28 30 30 30 30 26 22 21 19 20 23 24 25 25 23 24 24 24 27 31 35 40 43 45 44 43 42 43
17 15 13 15 21 30 25 21 25 25 15 16 24 28 29 30 32 33 34 32 28 24 25 26 27 28 29 29 29 31 32 32 32 32 35 38 40 42 46 48 48 46 46
22 16 18 30 33 34 29 23 17 13 10 15 19 23 27 30 32 34 34 33 33 32 32 32 33 31 29 29 31 33 35 37 38 40 41 42 44 45 44 42 44 47 48
23 26 33 32 29 29 23 17 14 14 7 11 15 18 19 20 24 29 31 32 34 34 32 32 34 36 35 35 34 37 40 42 43 45 46 47 48 49 46 44 44 45 46
29 31 34 29 28 26 17 17 22 12 6 6 8 10 11 14 15 19 21 23 23 27 27 27 28 31 37 38 37 38 41 45 48 48 50 52 52 53 54 49 43 46 47
34 37 32 30 25 20 18 20 16 13 12 11 10 10 14 15 16 19 21 23 23 22 22 23 26 32 37 37 38 40 44 51 52 52 53 55 55 56 56 50 47 45 48
33 35 35 33 28 24 21 19 15 11 10 13 15 12 15 20 26 31 35 32 27 28 30 31 32 36 39 36 37 40 44 51 56 56 57 58 60 60 59 53 48 45 46
39 41 38 34 27 22 17 13 8 3 7 15 21 21 19 22 26 28 28 30 30 30 31 37 41 42 37 37 36 37 43 49 57 58 61 62 63 61 54 51 50 50 49
44 42 37 33 26 23 17 9 5 2 6 16 22 23 21 22 23 23 26 30 35 38 41 44 43 40 39 36 37 38 43 51 56 55 58 63 64 60 54 48 48 48 50
49 43 37 32 27 21 15 7 3 6 6 11 21 21 23 25 28 29 32 37 44 51 46 41 40 38 37 35 35 41 43 48 51 53 57 62 62 57 52 46 48 45 44
45 41 35 33 28 20 12 6 4 9 10 12 19 21 23 28 34 40 44 49 54 53 45 38 33 31 31 30 34 39 48 48 47 52 58 61 58 53 50 46 47 45 41
Wind_Direction_850mb
230 235 239 242 249 258 262 256 268 271 274 281 288 289 283 278 279 282 286 286 283 276 269 278 282 284 278 268 263 258 255 245 253 258 263 260 263 261 260 268 246 246 260
221 226 237 237 236 251 267 284 284 276 279 279 282 281 272 277 278 275 282 279 281 268 272 273 293 291 287 279 265 255 254 251 249 257 259 264 260 260 262 261 260 262 267
215 224 230 240 246 257 272 281 276 272 272 278 280 280 276 275 276 278 280 287 290 269 256 253 297 285 274 271 273 278 259 252 252 258 262 263 262 264 266 261 262 262 271
212 232 249 258 262 264 266 268 270 271 270 269 274 276 274 266 264 278 286 277 272 266 246 241 273 269 255 257 289 264 270 255 249 258 262 263 264 263 260 263 265 269 272
179 191 201 215 240 257 266 269 266 265 268 272 276 280 285 276 269 275 278 284 280 274 259 249 271 267 266 264 289 252 255 261 256 258 263 266 264 266 264 267 266 268 268
143 164 192 230 255 263 261 264 265 264 267 276 282 276 273 263 264 268 275 285 287 285 284 269 254 249 251 269 267 241 248 252 253 258 264 267 270 268 269 269 274 272 271
154 175 183 205 244 252 254 262 264 274 277 282 294 299 299 294 290 279 278 279 284 279 284 292 277 268 253 249 247 252 269 265 259 258 261 265 270 269 271 270 275 282 270
154 181 204 202 227 238 248 255 263 272 278 282 285 289 293 296 297 295 287 284 284 284 271 266 276 283 281 269 267 271 276 270 260 252 257 266 273 266 265 271 273 270 268
165 217 221 231 240 250 251 255 265 278 285 285 285 287 293 299 301 298 288 284 281 280 279 278 282 287 285 281 283 284 283 285 280 275 264 266 274 274 269 269 270 283 280
192 202 215 219 215 215 184 91 83 71 62 57 36 8 3 2 3 0 358 344 311 286 277 273 265 268 278 284 292 293 289 292 293 289 284 280 277 274 270 270 275 276 279
201 208 179 154 110 98 102 97 80 56 25 352 336 337 342 351 353 349 340 326 308 294 293 296 281 268 265 271 281 286 288 284 282 282 279 275 276 277 275 273 274 275 275
192 172 154 137 108 106 99 84 62 51 45 65 65 66 61 52 41 37 38 38 29 7 334 312 300 293 290 285 281 283 286 292 292 284 282 284 283 280 277 274 276 278 277
180 166 150 133 117 119 108 83 74 85 82 76 71 69 63 53 42 38 36 36 34 43 47 39 29 17 8 356 353 341 323 312 305 300 296 294 292 291 288 284 279 278 279
175 158 150 149 144 146 142 109 95 98 90 78 63 46 31 13 13 28 35 33 36 33 28 24 22 27 23 13 0 359 356 351 343 332 322 316 314 314 314 311 300 291 291
160 154 155 157 162 159 162 137 126 108 82 53 47 16 1 5 19 20 21 23 20 9 355 339 324 324 329 328 331 326 319 316 318 322 323 321 318 316 316 320 317 312 307
162 162 169 180 183 172 166 149 143 124 100 69 30 28 36 40 36 31 27 23 18 9 349 350 1 1 1 1 354 347 344 344 338 329 322 316 313 312 311 309 309 310 308
165 160 158 157 159 161 150 147 145 133 113 55 43 50 51 45 39 35 32 25 20 13 15 20 19 19 19 19 18 13 11 6 356 348 341 334 328 320 315 313 312 309 306
160 153 145 140 139 143 144 144 143 126 99 52 49 52 50 45 36 29 26 22 22 20 19 18 18 19 17 15 11 7 2 357 354 351 348 345 339 329 327 326 323 326 321
163 155 148 147 149 154 151 151 160 150 94 39 43 39 35 27 22 18 14 14 18 19 17 14 9 4 359 355 355 356 355 351 350 349 348 346 342 337 329 322 323 327 333
159 157 155 154 157 163 157 155 152 149 93 48 17 10 3 2 359 356 354 351 354 0 2 1 358 356 354 349 343 343 344 343 342 341 343 342 340 337 333 324 317 320 325
155 157 162 155 150 149 149 150 140 112 78 42 3 321 330 329 326 329 331 328 310 313 321 329 339 344 346 337 335 335 340 342 340 339 339 339 339 336 334 327 322 321 323
159 161 157 156 153 141 133 130 119 95 57 28 10 346 329 323 318 319 321 323 316 300 296 308 320 328 334 331 327 329 334 341 340 336 336 338 337 336 335 335 331 327 322
160 158 155 156 152 148 139 135 127 76 29 14 12 6 347 331 328 327 327 325 323 318 303 303 308 314 319 321 314 322 325 334 337 334 333 334 334 333 330 332 326 326 327
165 163 162 158 150 145 147 121 108 309 360 8 2 3 358 351 344 338 337 331 324 317 308 300 297 297 304 308 306 314 319 323 329 329 329 330 330 328 326 323 322 320 324
171 169 166 165 160 149 160 168 220 272 328 351 2 11 14 13 6 353 340 332 328 325 319 307 295 298 303 300 300 306 313 321 324 325 327 328 327 325 323 317 318 316 320
178 177 178 182 186 188 198 224 282 308 309 314 346 351 357 356 352 349 343 336 330 330 326 320 313 303 300 299 306 311 316 319 322 325 326 326 325 324 322 317 315 315 316